Meteo Giornale » Osservazioni meteo Slovenia » Ljubljana-Brnik

ore: 04:30 - Osservazioni Meteo Ljubljana-Brnik
Lat. 46° 13' N Lon. 14° 29' E Alt. 385 metri s.l.m.

poco_nuvoloso Europe/Ljubljana

10 °C

Poco Nuvoloso

Temp. 24 Ore

10 °C

24 °C

Nord

0 Km/h

Dew point 10 °C

Umidità 100 %

Visibilità  10 Km

Il sole sorge alle ore 05:24

Il sole tramonta alle ore 20:51

Data e Ora Cielo e Fenomeni T °C DP °C Um. % Pres. hPa Vis. km Vento km/h
Oggi h: 04:30 poco_nuvoloso Poco Nuvoloso 10 10 100 1015 10 N 0
Oggi h: 04:00 poco_nuvoloso Poco Nuvoloso 10 10 100 1015 10 N 0
Oggi h: 03:30 poco_nuvoloso Poco Nuvoloso 10 10 100 1015 10 N 1.8
Oggi h: 02:30 poco_nuvoloso Poco Nuvoloso 10 10 100 1015 10 N 1.8
Oggi h: 02:00 poco_nuvoloso Poco Nuvoloso 11 10 93 1015 10 N 1.8
Oggi h: 01:30 poco_nuvoloso Poco Nuvoloso 12 11 93 1015 10 N 1.8
Oggi h: 01:00 poco_nuvoloso Poco Nuvoloso 12 11 93 1015 10 N 1.8
Oggi h: 00:30 nuvoloso Nuvoloso 12 11 93 1015 10 N 1.8
Oggi h: 00:00 nuvoloso Nuvoloso 13 12 93 1015 10 N 3.7
Ieri h: 23:30 nuvoloso Nuvoloso 14 12 87 1015 10 N 1.8
Ieri h: 22:30 nuvoloso Nuvoloso 16 13 82 1014 10 N 0
Ieri h: 22:00 molto_nuvoloso Molto Nuvoloso 17 13 77 1014 10 N 3.7
Ieri h: 21:30 nuvoloso Nuvoloso 17 13 77 1014 10 N 1.8
Ieri h: 21:00 nuvoloso Nuvoloso 18 12 67 1014 10 N 3.7
Ieri h: 20:30 nuvoloso Nuvoloso 18 12 67 1013 10 E 11.1
Ieri h: 20:00 nuvoloso Nuvoloso 20 12 59 1013 10 E 7.4
Ieri h: 19:30 molto_nuvoloso Molto Nuvoloso 20 12 59 1013 10 E 13
Ieri h: 19:00 molto_nuvoloso Molto Nuvoloso 21 12 56 1013 10 E 11.1
Ieri h: 18:30 molto_nuvoloso Molto Nuvoloso 21 12 56 1013 10 E 14.8
Ieri h: 18:00 molto_nuvoloso Molto Nuvoloso 22 12 53 1013 10 E 16.7
Ieri h: 17:30 molto_nuvoloso Molto Nuvoloso 21 11 52 1013 10 E 22.2
Ieri h: 17:00 molto_nuvoloso Molto Nuvoloso 21 12 56 1013 10 E 20.3
Ieri h: 16:30 molto_nuvoloso Molto Nuvoloso 22 11 49 1013 10 E 20.3
Ieri h: 16:00 molto_nuvoloso Molto Nuvoloso 22 11 49 1013 10 E/SE 20.3
Ieri h: 15:30 molto_nuvoloso Molto Nuvoloso 24 12 47 1013 10 E 13
Ieri h: 15:00 nuvoloso Nuvoloso 24 11 43 1013 10 E 16.7
Ieri h: 14:30 nuvoloso Nuvoloso 23 10 43 1013 10 E 16.7
Ieri h: 14:00 nuvoloso Nuvoloso 22 12 53 1013 10 E/NE 11.1
Ieri h: 13:30 nuvoloso Nuvoloso 22 12 53 1013 10 E 11.1
Ieri h: 13:00 nuvoloso Nuvoloso 22 12 53 1013 10 E 11.1
Ieri h: 12:30 nuvoloso Nuvoloso 23 12 49 1013 10 N 3.7
Ieri h: 12:00 nuvoloso Nuvoloso 22 12 53 1013 10 SE 13
Ieri h: 11:30 nuvoloso Nuvoloso 22 13 56 1013 10 N 3.7
Ieri h: 11:00 nuvoloso Nuvoloso 20 13 64 1014 10 N/NE 7.4
Ieri h: 10:30 nuvoloso Nuvoloso 21 13 60 1014 10 N 3.7
Ieri h: 10:00 nuvoloso Nuvoloso 20 12 59 1014 10 E/SE 9.3
Ieri h: 09:30 poco_nuvoloso Poco Nuvoloso 20 13 64 1014 10 SE 7.4
Ieri h: 08:30 nuvoloso Nuvoloso 18 13 72 1014 10 N 1.8
Ieri h: 08:00 nuvoloso Nuvoloso 18 14 77 1013 10 N 1.8
Ieri h: 07:30 molto_nuvoloso Molto Nuvoloso 17 14 82 1013 10 N 3.7
Ieri h: 07:00 molto_nuvoloso Molto Nuvoloso 16 14 87 1013 10 N 3.7
Ieri h: 06:30 molto_nuvoloso Molto Nuvoloso 14 14 100 1014 10 N 0
Ieri h: 06:00 molto_nuvoloso Molto Nuvoloso 14 13 93 1014 10 N 0
Ieri h: 05:30 molto_nuvoloso Molto Nuvoloso 14 13 93 1013 10 N 3.7
Ieri h: 05:00 molto_nuvoloso Molto Nuvoloso 14 13 93 1013 10 N 3.7